Weather History for Gillette, WY

Change the Weather History Date:

Sunday, March 24, 2013

  Actual Average Record
Temperature  
Mean Temperature 11 °F 37 °F  
Max Temperature 20 °F 50 °F 71 °F (1939)
Min Temperature 1 °F 24 °F -13 °F (1964)
Degree Days  
Heating Degree Days 54 28  
Month to date heating degree days 771 746  
Since 1 July heating degree days 5894 6154  
Cooling Degree Days 0 0  
Month to date cooling degree days 0 0  
Year to date cooling degree days 0 0  
Moisture  
Dew Point 10 °F    
Average Humidity 85    
Maximum Humidity 96    
Minimum Humidity 74    
Precipitation  
Precipitation 0.02 in 0.04 in 0.81 in (1972)
Month to date precipitation 0.28 0.69  
Year to date precipitation 1.41 1.47  
Sea Level Pressure  
Sea Level Pressure 30.23 in    
Wind  
Wind Speed 11 mph (NNW)    
Max Wind Speed 25 mph    
Max Gust Speed 30 mph    
Visibility 5 miles    
Events Snow    
T = Trace of Precipitation, MM = Missing Value Source: NWS Daily Summary

Daily Weather History Graph

Daily Weather History Graph

Search for Another Location

Airport:

Trip Planner

Search our weather history database for the weather conditions in past years. The results will help you decide how hot, cold, wet, or windy it might be!

Date:

Astronomy

Mar. 24, 2013 Rise Set
Actual Time 6:57 AM MDT 7:19 PM MDT
Civil Twilight 6:28 AM MDT 7:49 PM MDT
Nautical Twilight 5:54 AM MDT 8:23 PM MDT
Astronomical Twilight 5:19 AM MDT 8:58 PM MDT
Moon 4:46 PM MDT (3/24) 5:14 AM MDT (3/24)
Length of Visible Light 13h 20m
Length of Day
12h 22m
Waxing Gibbous, 92% of the Moon is Illuminated
Mar 24
Waxing Gibbous
Mar 27
Full
Apr 2
Last Quarter
Apr 10
New
Apr 18
First Quarter

Hourly Weather History & Observations

Time (MDT) Temp. Windchill Dew Point Humidity Pressure Visibility Wind Dir Wind Speed Gust Speed Precip Events Conditions
12:53 AM 12.9 °F 3.8 °F 9.0 °F 84% 30.31 in 10.0 mi West 5.8 mph - N/A   Clear
1:53 AM 12.0 °F 0.5 °F 8.1 °F 84% 30.30 in 10.0 mi West 8.1 mph - N/A   Clear
2:53 AM 10.0 °F 0.4 °F 7.0 °F 87% 30.28 in 10.0 mi West 5.8 mph - N/A   Clear
3:53 AM 10.9 °F -0.8 °F 8.1 °F 88% 30.27 in 10.0 mi West 8.1 mph - N/A   Clear
4:53 AM 10.0 °F -2.9 °F 8.1 °F 92% 30.27 in 10.0 mi West 9.2 mph - N/A   Clear
5:53 AM 10.9 °F -0.8 °F 9.0 °F 92% 30.28 in 10.0 mi WNW 8.1 mph - N/A   Mostly Cloudy
6:38 AM 12.2 °F 0.7 °F 8.6 °F 85% 30.12 in 10.0 mi NNW 8.1 mph - N/A   Overcast
6:53 AM 12.9 °F 0.7 °F 10.0 °F 88% 30.29 in 8.0 mi NW 9.2 mph - 0.00 in Snow Light Snow
7:12 AM 12.2 °F 1.7 °F 10.4 °F 92% 30.12 in 1.8 mi NW 6.9 mph - 0.00 in Snow Light Snow
7:24 AM 12.2 °F -1.0 °F 10.4 °F 92% 30.12 in 1.0 mi NW 10.4 mph - 0.00 in Snow Light Snow
7:53 AM 14.0 °F -0.2 °F 10.0 °F 84% 30.30 in 1.0 mi NW 12.7 mph - 0.00 in Snow Light Snow
8:34 AM 14.0 °F -2.0 °F 10.4 °F 86% 30.13 in 0.8 mi NW 16.1 mph - 0.01 in Snow Light Snow
8:44 AM 14.0 °F -0.8 °F 10.4 °F 86% 30.13 in 1.0 mi NNW 13.8 mph - 0.01 in Snow Light Snow
8:53 AM 14.0 °F 0.5 °F 10.9 °F 88% 30.31 in 0.8 mi NW 11.5 mph - 0.01 in Snow Light Snow
9:03 AM 14.0 °F -1.4 °F 10.4 °F 86% 30.12 in 1.0 mi NNW 15.0 mph - 0.00 in Snow Light Snow
9:15 AM 15.8 °F 0.3 °F 10.4 °F 79% 30.13 in 0.8 mi NW 16.1 mph - 0.00 in Snow Light Snow
9:35 AM 15.8 °F 0.9 °F 10.4 °F 79% 30.13 in 1.0 mi NNW 15.0 mph - 0.01 in Snow Light Snow
9:53 AM 15.1 °F -1.6 °F 10.0 °F 80% 30.32 in 1.2 mi NNW 18.4 mph - 0.01 in Snow Light Snow
10:03 AM 15.8 °F -1.1 °F 10.4 °F 79% 30.13 in 3.0 mi NNW 19.6 mph - 0.00 in   Haze
10:22 AM 15.8 °F -0.6 °F 10.4 °F 79% 30.13 in 2.5 mi NNW 18.4 mph - N/A Snow Light Snow
10:36 AM 17.6 °F 1.3 °F 8.6 °F 68% 30.14 in 9.0 mi NNW 19.6 mph 25.3 mph 0.00 in   Overcast
10:53 AM 17.1 °F 1.5 °F 10.0 °F 74% 30.32 in 2.0 mi North 17.3 mph - 0.00 in Snow Light Snow
11:00 AM 15.8 °F -0.2 °F 10.4 °F 79% 30.14 in 1.0 mi North 17.3 mph - 0.00 in Snow Light Snow
11:27 AM 17.6 °F 1.3 °F 10.4 °F 73% 30.14 in 3.0 mi North 19.6 mph - 0.00 in Snow Light Snow
11:49 AM 17.6 °F 1.3 °F 10.4 °F 73% 30.15 in 6.0 mi North 19.6 mph - 0.00 in   Haze
11:53 AM 17.1 °F 1.5 °F 10.9 °F 77% 30.33 in 5.0 mi North 17.3 mph - 0.00 in   Haze
12:51 PM 17.6 °F 2.7 °F 10.4 °F 73% 30.15 in 9.0 mi North 16.1 mph 25.3 mph N/A   Overcast
12:53 PM 18.0 °F 2.2 °F 10.9 °F 74% 30.33 in 7.0 mi North 18.4 mph 25.3 mph 0.00 in Snow Light Snow
1:10 PM 17.6 °F 1.7 °F 12.2 °F 79% 30.15 in 2.0 mi NNW 18.4 mph - 0.00 in Snow Light Snow
1:28 PM 17.6 °F 2.2 °F 10.4 °F 73% 30.15 in 3.0 mi North 17.3 mph 26.5 mph N/A Snow Light Snow
1:53 PM 19.0 °F 4.0 °F 10.9 °F 71% 30.33 in 9.0 mi North 17.3 mph - 0.00 in   Overcast
2:15 PM 19.4 °F 3.6 °F 10.4 °F 68% 30.15 in 10.0 mi North 19.6 mph - N/A   Overcast
2:26 PM 19.4 °F 4.1 °F 12.2 °F 74% 30.16 in 3.0 mi North 18.4 mph - 0.00 in Snow Light Snow
2:41 PM 19.4 °F 4.5 °F 12.2 °F 74% 30.15 in 4.0 mi North 17.3 mph - 0.00 in   Haze
2:53 PM 18.0 °F 2.2 °F 12.9 °F 81% 30.35 in 2.5 mi NNW 18.4 mph - 0.00 in   Haze
3:11 PM 19.4 °F 5.5 °F 12.2 °F 74% 30.16 in 2.0 mi NNW 15.0 mph - 0.00 in Snow Light Snow
3:31 PM 19.4 °F 4.5 °F 12.2 °F 74% 30.16 in 5.0 mi NNW 17.3 mph 25.3 mph 0.00 in   Haze
3:53 PM 18.0 °F 3.1 °F 12.0 °F 78% 30.35 in 5.0 mi North 16.1 mph - 0.00 in   Haze
4:10 PM 17.6 °F 3.2 °F 12.2 °F 79% 30.17 in 10.0 mi North 15.0 mph - N/A   Overcast
4:53 PM 18.0 °F 3.1 °F 10.9 °F 74% 30.37 in 9.0 mi NNW 16.1 mph - N/A   Unknown
5:10 PM 17.6 °F 3.2 °F 10.4 °F 73% 30.18 in 3.0 mi North 15.0 mph - 0.00 in Snow Light Snow
5:36 PM 17.6 °F 2.7 °F 10.4 °F 73% 30.18 in 8.0 mi NNW 16.1 mph - 0.00 in   Overcast
5:53 PM 18.0 °F 4.8 °F 10.9 °F 74% 30.37 in 5.0 mi North 12.7 mph - 0.00 in   Haze
6:03 PM 17.6 °F 3.2 °F 12.2 °F 79% 30.19 in 2.0 mi North 15.0 mph - 0.00 in Snow Light Snow
6:05 PM 17.6 °F 4.3 °F 12.2 °F 79% 30.19 in 1.8 mi North 12.7 mph - 0.00 in Snow Light Snow
6:11 PM 17.6 °F 3.7 °F 12.2 °F 79% 30.19 in 3.0 mi North 13.8 mph - 0.00 in Snow Light Snow
6:38 PM 17.6 °F 4.3 °F 10.4 °F 73% 30.19 in 2.5 mi North 12.7 mph - 0.00 in   Haze
6:53 PM 17.1 °F 4.3 °F 12.0 °F 81% 30.38 in 2.0 mi NNW 11.5 mph - 0.00 in   Haze
7:20 PM 15.8 °F 5.1 °F 12.2 °F 86% 30.20 in 1.8 mi North 8.1 mph - N/A   Overcast
7:29 PM 15.8 °F 4.2 °F 12.2 °F 86% 30.20 in 3.0 mi NNW 9.2 mph - N/A   Overcast
7:36 PM 14.0 °F 2.9 °F 12.2 °F 93% 30.20 in 7.0 mi North 8.1 mph - N/A   Overcast
7:53 PM 14.0 °F 6.5 °F 12.0 °F 92% 30.40 in 8.0 mi NNW 4.6 mph - N/A   Overcast
8:18 PM 14.0 °F 6.5 °F 10.4 °F 86% 30.21 in 10.0 mi NNW 4.6 mph - N/A   Overcast
8:50 PM 14.0 °F 2.0 °F 12.2 °F 93% 30.21 in 3.0 mi NE 9.2 mph - 0.00 in Snow Light Snow
8:53 PM 14.0 °F 2.9 °F 10.9 °F 88% 30.41 in 3.0 mi ENE 8.1 mph - 0.00 in Snow Light Snow
9:42 PM 10.4 °F - 8.6 °F 92% 30.22 in 9.0 mi Calm Calm - 0.00 in   Overcast
9:53 PM 8.1 °F - 6.1 °F 92% 30.44 in 10.0 mi Calm Calm - 0.00 in   Overcast
10:11 PM 5.0 °F - 3.2 °F 92% 30.23 in 7.0 mi Calm Calm - N/A   Overcast
10:53 PM 3.0 °F - 1.0 °F 91% 30.44 in 10.0 mi Calm Calm - N/A   Scattered Clouds
11:53 PM 1.0 °F -12.9 °F -2.0 °F 87% 30.45 in 10.0 mi South 8.1 mph - N/A   Clear